SL-14 DEB, 45348

Orbit data source: Space-Track

SL-14 DEB, 45348 is space debris in LEO originally from a launch on Thu, 15 Aug 1991 UTC launched from the Plesetsk Missile And Space Complex (PKMTR). Debris objects in space refer to the collection of defunct objects orbiting the Earth. Examples of debris include non-operational satellites, rocket bodies, and fragments generated from explosions, collisions, or faulty payload assembly.

Loading next visibility...
Identifier
45348, 1991-056CH
Orbit
LEO
Country
Flag of CISCIS
Related business
Manufacturer
Unknown
Mission
Spacecraft
Bus & Motor
Unknown
Mass
Unknown
Launch date (UTC)
1991-08-15 (34 years ago)
Launch vehicle
Unknown
Launch site
Plesetsk Missile And Space Complex (PKMTR)
Object type
Payload
Rocket body
Debris
Shape & HBR
Unknown shape, 0.1 m
Radar Cross Section
Small (<0.1 m²)

Expand to show TLE details & history
Last TLE update: 17 hours ago

TLE from 17 hours ago
0 SL-14 DEB
1 45348U 91056CH  25286.79665183  .00000031  00000-0  47286-4 0  9998
2 45348  82.5650 310.0649 0020813 350.6146   9.4586 13.19248165270465
Epoch: 2025-10-13T19:07Z
TLE epoch observation values (Epoch: 2025-10-13T19:07:10.718Z)
Latitude
0.00003°
Longitude
0.67596°
Altitude
1,174.87 km
Speed
7.273 km/s
True Right ascension
20h 40m 15s
True Declination
0° 00' 00"
Sunlit
Object was in daylight at epoch
Visualization orbit readout
Latitude
Unknown
Longitude
Unknown
Altitude
Unknown
Speed
Unknown
Apparent Right ascension
Unknown
Apparent Declination
Unknown
Sunlit
N/A
Visualization observer readout
Local Sidereal Time
06:15:15
Azimuth
Unknown
Elevation
Unknown
Doppler factor
Unknown
Orbital elements
Apogee altitude
1,200.575 km
Perigee altitude
1,169.093 km
Semi-major axis
7,562.971 km
Eccentricity
0.00208
Inclination
82.565°
RAAN
310.0649°
Arg. of periapsis
350.6146°
True anomaly
9.49789°
Mean anomaly
9.4586°
Eccentric anomaly
9.47824°
Mean motion
3.29993 °/min
Orbital period
109.09 mins
BSTAR
0.000047286
Loading maneuver chart data...
Computing Atmospheric mass density...
Loading historical data...
Loading historical data...
Loading historical data...
Loading historical data...
Loading historical data...
Loading historical data...
Loading historical data...

Documentation

Showing up to 5 results
|